Flag for Canada Weather past 2 weeks in Stephenville, Newfoundland and Labrador, Canada

Now
43 °F

Broken clouds.


Feels Like: 39 °F
Forecast: 40 / 50 °F
Wind: 6 mph from Northeast

Location: Stephenville

Current Time: Oct 22, 2014 at 10:34:52 AM

Latest Report: Oct 22, 2014 at 9:30 AM


Visibility: 15 mi

Pressure: 30.45 "Hg

Humidity: 87%

Dew point: 39 °F

Location of StephenvilleLocation

Historic Weather in Stephenville — Graph

°F

Stephenville temperature yesterday

Maximum temperature yesterday: 48 °F (at 11:30 AM)
Minimum temperature yesterday: 43 °F (at 11:30 PM)
Average temperature yesterday: 46 °F

Past Weeks' High & Low Weather Summary

 TemperatureHumidityPressure
High63 °F (Oct 8, 3:30 PM)100% (Oct 7, 9:30 AM)30.45 "Hg (Oct 7, 9:30 AM)
Low37 °F (Oct 22, 8:30 AM)45% (Oct 8, 3:30 PM)29.09 "Hg (Oct 20, 9:30 AM)
Average51 °F83%29.92 "Hg
* Reported Oct 7 9:30 AM — Oct 22 9:30 AM, Stephenville, Weather by CustomWeather, © 2014

Note: Actual official high and low records may vary slightly from our data, if they occured in-between our weather recording intervals... More about our weather records

Advertising

Stephenville weather history for previous 24 hours

 ConditionsComfort  
Time TempWeatherWind HumidityBarometerVisibility
9:30 AM
Oct 22
43 °FBroken clouds.6 mph87%30.45 "Hg15 mi
8:30 AM37 °FScattered clouds.5 mph100%30.42 "Hg15 mi
7:30 AM39 °FPassing clouds.2 mph93%30.40 "Hg15 mi
6:30 AM41 °FPassing clouds.3 mph93%30.40 "Hg15 mi
5:30 AM43 °FPassing clouds.2 mph87%30.38 "Hg15 mi
4:30 AM43 °FOvercast.3 mph87%30.36 "Hg15 mi
3:30 AM43 °FOvercast.5 mph87%30.35 "Hg15 mi
2:30 AM43 °FOvercast.2 mph81%30.32 "Hg15 mi
1:30 AM43 °FOvercast.5 mph81%30.31 "Hg15 mi
12:30 AM45 °FOvercast.7 mph76%30.30 "Hg15 mi
11:30 PM
Oct 21
43 °FOvercast.5 mph81%30.27 "Hg15 mi
10:30 PM45 °FOvercast.7 mph76%30.26 "Hg15 mi
9:30 PM45 °FOvercast.6 mph76%30.24 "Hg15 mi
8:30 PM45 °FOvercast.9 mph81%30.22 "Hg15 mi
7:30 PM45 °FOvercast.7 mph81%30.19 "Hg15 mi
6:30 PM46 °FOvercast.7 mph76%30.16 "Hg15 mi
5:30 PM46 °FOvercast.7 mph76%30.13 "Hg15 mi
4:30 PM46 °FOvercast.10 mph66%30.11 "Hg15 mi
3:30 PM48 °FOvercast.17 mph66%30.09 "Hg15 mi
2:30 PM48 °FOvercast.16 mph66%30.06 "Hg15 mi
1:30 PM46 °FOvercast.20 mph71%30.05 "Hg15 mi
12:30 PM48 °FOvercast.20 mph66%30.03 "Hg15 mi
11:30 AM48 °FOvercast.18 mph71%30.01 "Hg15 mi
10:30 AM46 °FDrizzle. Overcast.24 mph71%29.99 "Hg15 mi
Weather by CustomWeather, © 2014

See weather overviewHow to use our weather pages